Tracking 20083 objects as of 9-Dec-2019
HD Live streaming from Space Station
objects crossing your sky now

FENGYUN 1C DEB

Track FENGYUN 1C DEB now!
10-day predictions


NORAD ID: 33745
Int'l Code: 1999-025DJJ
Perigee: 819.9 km
Apogee: 914.5 km
Inclination: 99.1 °
Period: 102.1 minutes
Semi major axis: 7238 km
RCS: 0.0047 m2 (small)
Launch date: May 10, 1999
Source: People's Republic of China (PRC)
Launch site: Taiyaun Space Center, China (TSC)

Note: This is SATELLITE DEBRIS
aabbcc
Your satellite tracking list
Your tracking list is empty




NASA's NSSDC Master Catalog

Two Line Element Set (TLE):
1 33745U 99025DJJ 19340.37084878 +.00000568 +00000-0 +34215-3 0  9996
2 33745 099.0617 301.4988 0065357 339.5623 020.2934 14.09805275349384
Source of the keplerian elements: AFSPC